Terminal Aerodrome Forecast
Issued by NWS Blacksburg, VA

Current Version | Previous Version | Text Only | Print | Product List | Glossary Off
Versions: 1 2 3 4 5 6 7 8 9 10 11 12 13 14 15 16 17 18 19 20 21 22 23 24 25 26 27 28 29 30 31 32 33 34 35 36 37 38 39 40 41 42 43 44 45 46 47 48 49 50

000
FTUS41 KRNK 051732
TAFBLF
TAF
KBLF 051732Z 0518/0618 34005KT 3/4SM -SN OVC006
      TEMPO 0518/0519 1/2SM SN FG
     FM052000 33008KT 3SM -SN OVC009
     FM060100 33007KT P6SM OVC014
     FM061600 29003KT P6SM SKC=

USA.gov is the U.S. government's official web portal to all federal, state and local government web resources and services.